Time,TemperatureF,DewpointF,PressureIn,WindDirection,WindDirectionDegrees,WindSpeedMPH,WindSpeedGustMPH,Humidity,HourlyPrecipIn,Conditions,Clouds,dailyrainin,SoftwareType,DateUTC
2013-05-16 00:14:00,51.5,50.0,29.55,SW,219,1.0,2.0,93,0.00,,,0.00,weatherlink.com 1.10,2013-05-16 04:14:00,
2013-05-16 00:29:00,51.2,49.0,29.55,SW,219,1.0,2.0,93,0.00,,,0.00,weatherlink.com 1.10,2013-05-16 04:29:00,
2013-05-16 00:45:00,51.0,49.0,29.54,SW,219,0.0,2.0,94,0.00,,,0.00,weatherlink.com 1.10,2013-05-16 04:45:00,
2013-05-16 01:00:00,50.6,48.0,29.54,SW,219,0.0,0.0,92,0.00,,,0.00,weatherlink.com 1.10,2013-05-16 05:00:00,
2013-05-16 01:15:00,50.3,49.0,29.54,SW,219,0.0,0.0,94,0.00,,,0.00,weatherlink.com 1.10,2013-05-16 05:15:00,
2013-05-16 01:30:00,49.9,48.0,29.53,SW,219,0.0,0.0,94,0.00,,,0.00,weatherlink.com 1.10,2013-05-16 05:30:00,
2013-05-16 01:45:00,49.6,48.0,29.54,SW,219,1.0,3.0,94,0.00,,,0.00,weatherlink.com 1.10,2013-05-16 05:45:00,
2013-05-16 02:00:00,49.2,48.0,29.54,SW,219,0.0,1.0,94,0.00,,,0.00,weatherlink.com 1.10,2013-05-16 06:00:00,
2013-05-16 02:15:00,48.9,47.0,29.53,SW,219,0.0,0.0,94,0.00,,,0.00,weatherlink.com 1.10,2013-05-16 06:15:00,
2013-05-16 02:30:00,48.4,47.0,29.53,SW,219,2.0,2.0,95,0.00,,,0.00,weatherlink.com 1.10,2013-05-16 06:30:00,
2013-05-16 02:45:00,48.1,47.0,29.53,NNW,345,0.0,3.0,94,0.00,,,0.00,weatherlink.com 1.10,2013-05-16 06:45:00,
2013-05-16 03:00:00,47.8,46.0,29.54,NNW,345,0.0,1.0,94,0.00,,,0.00,weatherlink.com 1.10,2013-05-16 07:00:00,
2013-05-16 03:15:00,47.5,46.0,29.53,NNW,345,0.0,0.0,95,0.00,,,0.00,weatherlink.com 1.10,2013-05-16 07:15:00,
2013-05-16 03:30:00,47.0,46.0,29.52,NNW,344,0.0,2.0,95,0.00,,,0.00,weatherlink.com 1.10,2013-05-16 07:30:00,
2013-05-16 03:45:00,46.6,45.0,29.52,NNW,344,0.0,2.0,95,0.00,,,0.00,weatherlink.com 1.10,2013-05-16 07:45:00,
2013-05-16 04:00:00,46.3,45.0,29.52,NNW,344,0.0,0.0,94,0.00,,,0.00,weatherlink.com 1.10,2013-05-16 08:00:00,
2013-05-16 04:15:00,45.9,44.0,29.52,NNW,344,0.0,0.0,94,0.00,,,0.00,weatherlink.com 1.10,2013-05-16 08:15:00,
2013-05-16 04:30:00,45.6,44.0,29.52,NNW,344,0.0,0.0,94,0.00,,,0.00,weatherlink.com 1.10,2013-05-16 08:30:00,
2013-05-16 04:45:00,45.2,44.0,29.53,NNW,344,1.0,2.0,95,0.00,,,0.00,weatherlink.com 1.10,2013-05-16 08:45:00,
2013-05-16 05:00:00,45.0,44.0,29.53,NNW,344,0.0,1.0,95,0.00,,,0.00,weatherlink.com 1.10,2013-05-16 09:00:00,
2013-05-16 05:15:00,44.6,43.0,29.54,NNW,345,0.0,0.0,94,0.00,,,0.00,weatherlink.com 1.10,2013-05-16 09:15:00,
2013-05-16 05:30:00,44.3,43.0,29.54,NNW,345,0.0,0.0,94,0.00,,,0.00,weatherlink.com 1.10,2013-05-16 09:30:00,
2013-05-16 05:45:00,44.0,42.0,29.54,NNW,345,0.0,0.0,94,0.00,,,0.00,weatherlink.com 1.10,2013-05-16 09:45:00,
2013-05-16 06:00:00,43.9,43.0,29.54,NNW,345,0.0,0.0,95,0.00,,,0.00,weatherlink.com 1.10,2013-05-16 10:00:00,
2013-05-16 06:15:00,44.2,43.0,29.54,NNW,344,0.0,1.0,96,0.00,,,0.00,weatherlink.com 1.10,2013-05-16 10:15:00,
2013-05-16 06:30:00,45.2,44.0,29.55,NNW,344,0.0,0.0,97,0.00,,,0.00,weatherlink.com 1.10,2013-05-16 10:30:00,
2013-05-16 06:45:00,46.7,46.0,29.55,NNW,344,1.0,1.0,97,0.00,,,0.00,weatherlink.com 1.10,2013-05-16 10:45:00,
2013-05-16 07:00:00,49.8,49.0,29.56,NNW,344,1.0,2.0,97,0.00,,,0.00,weatherlink.com 1.10,2013-05-16 11:00:00,
2013-05-16 07:15:00,51.6,50.0,29.56,NNW,344,0.0,1.0,95,0.00,,,0.00,weatherlink.com 1.10,2013-05-16 11:15:00,
2013-05-16 07:30:00,53.8,52.0,29.56,NNW,346,0.0,2.0,92,0.00,,,0.00,weatherlink.com 1.10,2013-05-16 11:30:00,
2013-05-16 07:45:00,56.6,53.0,29.56,ESE,115,0.0,2.0,88,0.00,,,0.00,weatherlink.com 1.10,2013-05-16 11:45:00,
2013-05-16 08:00:00,59.6,51.0,29.56,SSW,198,1.0,3.0,72,0.00,,,0.00,weatherlink.com 1.10,2013-05-16 12:00:00,
2013-05-16 08:16:00,62.3,50.0,29.56,NW,311,2.0,5.0,64,0.00,,,0.00,weatherlink.com 1.10,2013-05-16 12:16:00,
2013-05-16 08:31:00,64.1,48.0,29.56,SSE,149,1.0,4.0,56,0.00,,,0.00,weatherlink.com 1.10,2013-05-16 12:31:00,
2013-05-16 08:46:00,65.7,48.0,29.56,WNW,284,0.0,4.0,54,0.00,,,0.00,weatherlink.com 1.10,2013-05-16 12:46:00,
2013-05-16 09:01:00,69.1,47.0,29.56,North,11,3.0,6.0,45,0.00,,,0.00,weatherlink.com 1.10,2013-05-16 13:01:00,
2013-05-16 09:16:00,70.8,46.0,29.57,NNW,344,3.0,8.0,42,0.00,,,0.00,weatherlink.com 1.10,2013-05-16 13:16:00,
2013-05-16 09:31:00,73.7,46.0,29.56,ESE,105,2.0,6.0,38,0.00,,,0.00,weatherlink.com 1.10,2013-05-16 13:31:00,
2013-05-16 09:46:00,74.4,44.0,29.56,SW,230,2.0,8.0,34,0.00,,,0.00,weatherlink.com 1.10,2013-05-16 13:46:00,
2013-05-16 10:01:00,76.3,43.0,29.56,NW,315,2.0,9.0,30,0.00,,,0.00,weatherlink.com 1.10,2013-05-16 14:01:00,
2013-05-16 10:16:00,76.8,46.0,29.56,WSW,246,2.0,9.0,34,0.00,,,0.00,weatherlink.com 1.10,2013-05-16 14:16:00,
2013-05-16 10:31:00,77.0,43.0,29.56,West,269,6.0,12.0,30,0.00,,,0.00,weatherlink.com 1.10,2013-05-16 14:31:00,
2013-05-16 10:46:00,77.5,45.0,29.56,SW,219,13.0,14.0,31,0.00,,,0.00,weatherlink.com 1.10,2013-05-16 14:46:00,
2013-05-16 11:01:00,79.7,41.0,29.56,NE,42,3.0,11.0,25,0.00,,,0.00,weatherlink.com 1.10,2013-05-16 15:01:00,
2013-05-16 11:16:00,80.6,44.0,29.56,WNW,298,4.0,10.0,27,0.00,,,0.00,weatherlink.com 1.10,2013-05-16 15:16:00,
2013-05-16 11:31:00,79.3,38.0,29.56,SSW,204,4.0,14.0,23,0.00,,,0.00,weatherlink.com 1.10,2013-05-16 15:31:00,
2013-05-16 11:46:00,81.3,41.0,29.56,NE,34,5.0,13.0,24,0.00,,,0.00,weatherlink.com 1.10,2013-05-16 15:46:00,
2013-05-16 12:01:00,81.4,40.0,29.55,NNE,24,8.0,10.0,23,0.00,,,0.00,weatherlink.com 1.10,2013-05-16 16:01:00,
2013-05-16 12:16:00,80.7,37.0,29.55,WSW,252,6.0,18.0,21,0.00,,,0.00,weatherlink.com 1.10,2013-05-16 16:16:00,
2013-05-16 12:31:00,81.8,41.0,29.54,NW,321,2.0,15.0,23,0.00,,,0.00,weatherlink.com 1.10,2013-05-16 16:31:00,
2013-05-16 12:46:00,82.7,39.0,29.53,NW,320,5.0,22.0,21,0.00,,,0.00,weatherlink.com 1.10,2013-05-16 16:46:00,
2013-05-16 13:01:00,83.2,42.0,29.53,North,5,1.0,11.0,23,0.00,,,0.00,weatherlink.com 1.10,2013-05-16 17:01:00,
2013-05-16 13:16:00,83.6,37.0,29.52,SSW,211,7.0,9.0,19,0.00,,,0.00,weatherlink.com 1.10,2013-05-16 17:16:00,
2013-05-16 13:31:00,83.2,41.0,29.52,SSE,162,3.0,21.0,22,0.00,,,0.00,weatherlink.com 1.10,2013-05-16 17:31:00,
2013-05-16 13:46:00,83.6,41.0,29.52,South,185,5.0,14.0,22,0.00,,,0.00,weatherlink.com 1.10,2013-05-16 17:46:00,
2013-05-16 14:02:00,82.7,39.0,29.52,SSE,155,13.0,20.0,21,0.00,,,0.00,weatherlink.com 1.10,2013-05-16 18:02:00,
2013-05-16 14:17:00,82.6,40.0,29.52,West,259,2.0,17.0,22,0.00,,,0.00,weatherlink.com 1.10,2013-05-16 18:17:00,
2013-05-16 14:32:00,82.8,40.0,29.52,NE,51,4.0,17.0,22,0.00,,,0.00,weatherlink.com 1.10,2013-05-16 18:32:00,
2013-05-16 14:47:00,82.9,40.0,29.52,SSW,213,5.0,13.0,22,0.00,,,0.00,weatherlink.com 1.10,2013-05-16 18:47:00,
2013-05-16 15:02:00,83.2,39.0,29.52,SSW,202,4.0,14.0,21,0.00,,,0.00,weatherlink.com 1.10,2013-05-16 19:02:00,
2013-05-16 15:17:00,83.2,39.0,29.51,ESE,117,4.0,17.0,21,0.00,,,0.00,weatherlink.com 1.10,2013-05-16 19:17:00,
2013-05-16 15:32:00,82.8,40.0,29.52,East,84,3.0,11.0,22,0.00,,,0.00,weatherlink.com 1.10,2013-05-16 19:32:00,
2013-05-16 15:47:00,82.5,40.0,29.52,WNW,286,11.0,16.0,22,0.00,,,0.00,weatherlink.com 1.10,2013-05-16 19:47:00,
2013-05-16 16:02:00,83.2,39.0,29.52,SW,227,5.0,14.0,21,0.00,,,0.00,weatherlink.com 1.10,2013-05-16 20:02:00,
2013-05-16 16:17:00,82.1,38.0,29.52,South,177,13.0,19.0,21,0.00,,,0.00,weatherlink.com 1.10,2013-05-16 20:17:00,
2013-05-16 16:32:00,81.6,38.0,29.51,SSW,200,9.0,15.0,21,0.00,,,0.00,weatherlink.com 1.10,2013-05-16 20:32:00,
2013-05-16 16:47:00,80.4,37.0,29.51,SSW,205,4.0,15.0,21,0.00,,,0.00,weatherlink.com 1.10,2013-05-16 20:47:00,
2013-05-16 17:02:00,80.3,38.0,29.51,ESE,108,4.0,14.0,22,0.00,,,0.00,weatherlink.com 1.10,2013-05-16 21:02:00,
2013-05-16 17:17:00,79.9,38.0,29.51,SE,140,8.0,10.0,22,0.00,,,0.00,weatherlink.com 1.10,2013-05-16 21:17:00,
2013-05-16 17:33:00,79.5,36.0,29.51,NW,304,5.0,18.0,21,0.00,,,0.00,weatherlink.com 1.10,2013-05-16 21:33:00,
2013-05-16 17:47:00,78.9,37.0,29.52,ESE,118,9.0,9.0,22,0.00,,,0.00,weatherlink.com 1.10,2013-05-16 21:47:00,
2013-05-16 18:02:00,78.8,36.0,29.52,South,170,2.0,13.0,21,0.00,,,0.00,weatherlink.com 1.10,2013-05-16 22:02:00,
2013-05-16 18:17:00,78.2,34.0,29.52,ENE,59,3.0,14.0,20,0.00,,,0.00,weatherlink.com 1.10,2013-05-16 22:17:00,
2013-05-16 18:32:00,77.9,35.0,29.52,NW,315,5.0,17.0,21,0.00,,,0.00,weatherlink.com 1.10,2013-05-16 22:32:00,
2013-05-16 18:47:00,77.3,34.0,29.52,NE,56,3.0,10.0,21,0.00,,,0.00,weatherlink.com 1.10,2013-05-16 22:47:00,
2013-05-16 19:02:00,76.8,33.0,29.53,SE,140,2.0,18.0,20,0.00,,,0.00,weatherlink.com 1.10,2013-05-16 23:02:00,
2013-05-16 19:17:00,76.5,34.0,29.54,South,178,3.0,12.0,21,0.00,,,0.00,weatherlink.com 1.10,2013-05-16 23:17:00,
2013-05-16 19:32:00,75.8,34.0,29.54,SSE,155,2.0,10.0,22,0.00,,,0.00,weatherlink.com 1.10,2013-05-16 23:32:00,
2013-05-16 19:47:00,75.1,35.0,29.55,ESE,112,2.0,7.0,23,0.00,,,0.00,weatherlink.com 1.10,2013-05-16 23:47:00,
2013-05-16 20:02:00,74.6,34.0,29.55,SE,133,2.0,6.0,23,0.00,,,0.00,weatherlink.com 1.10,2013-05-17 00:02:00,
2013-05-16 20:17:00,73.8,35.0,29.56,East,99,2.0,5.0,24,0.00,,,0.00,weatherlink.com 1.10,2013-05-17 00:17:00,
2013-05-16 20:32:00,72.9,34.0,29.57,SSW,212,2.0,7.0,24,0.00,,,0.00,weatherlink.com 1.10,2013-05-17 00:32:00,
2013-05-16 20:47:00,72.5,34.0,29.58,ESE,103,3.0,5.0,24,0.00,,,0.00,weatherlink.com 1.10,2013-05-17 00:47:00,
2013-05-16 21:02:00,72.1,32.0,29.60,SSW,194,5.0,13.0,23,0.00,,,0.00,weatherlink.com 1.10,2013-05-17 01:02:00,
2013-05-16 21:17:00,72.4,31.0,29.61,SSW,193,6.0,12.0,22,0.00,,,0.00,weatherlink.com 1.10,2013-05-17 01:17:00,
2013-05-16 21:32:00,71.9,31.0,29.62,West,269,2.0,7.0,22,0.00,,,0.00,weatherlink.com 1.10,2013-05-17 01:32:00,
2013-05-16 21:47:00,71.0,31.0,29.62,ENE,69,1.0,6.0,23,0.00,,,0.00,weatherlink.com 1.10,2013-05-17 01:47:00,
2013-05-16 22:02:00,69.4,33.0,29.63,NNW,331,0.0,3.0,26,0.00,,,0.00,weatherlink.com 1.10,2013-05-17 02:02:00,
2013-05-16 22:17:00,68.6,33.0,29.63,North,5,1.0,6.0,27,0.00,,,0.00,weatherlink.com 1.10,2013-05-17 02:17:00,
2013-05-16 22:32:00,67.9,38.0,29.64,North,360,5.0,7.0,33,0.00,,,0.00,weatherlink.com 1.10,2013-05-17 02:32:00,
2013-05-16 22:47:00,66.5,42.0,29.66,NNW,342,4.0,15.0,41,0.00,,,0.00,weatherlink.com 1.10,2013-05-17 02:47:00,
2013-05-16 23:02:00,64.8,43.0,29.68,North,9,4.0,11.0,45,0.00,,,0.00,weatherlink.com 1.10,2013-05-17 03:02:00,
2013-05-16 23:17:00,63.5,43.0,29.69,NNW,341,4.0,9.0,48,0.00,,,0.00,weatherlink.com 1.10,2013-05-17 03:17:00,
2013-05-16 23:32:00,62.4,43.0,29.69,North,360,2.0,7.0,50,0.00,,,0.00,weatherlink.com 1.10,2013-05-17 03:32:00,
2013-05-16 23:47:00,61.3,43.0,29.70,NNE,17,3.0,7.0,52,0.00,,,0.00,weatherlink.com 1.10,2013-05-17 03:47:00,